EW2082 Weather Reports


Display with metric or nautical units.
time (UTC)temp
F
wind
direction
speed
MPH
gust
MPH
rain 1hr
in
rain 24hr
in
rain mn
in
humidity
%
barometer
mb
20260901073004 65 229 0.0 0.0 0.00 0.00 0.00 89 1013.9
20260901072004 65 230 0.0 0.0 0.00 0.00 0.00 89 1013.9
20260901071003 65 230 0.0 0.0 0.00 0.00 0.00 89 1014.0
20260901070007 65 229 0.0 0.0 0.00 0.00 0.00 89 1014.1
20260901065004 65 230 0.0 0.0 0.00 0.00 0.00 89 1013.9
20260901064004 66 229 0.0 0.0 0.00 0.00 0.00 89 1013.8
20260901063004 66 229 0.0 0.0 0.00 0.00 0.00 89 1013.7
20260901062004 66 229 0.0 0.0 0.00 0.00 0.00 89 1013.5
20260901061004 66 230 0.0 0.0 0.00 0.00 0.00 89 1013.6
20260901055004 67 253 0.0 0.0 0.00 0.00 0.00 88 1013.5
20260901053004 67 253 0.0 1.0 0.00 0.00 0.00 88 1013.6
20260901051005 67 177 0.0 0.0 0.00 0.00 0.00 88 1013.3
20260901045004 68 98 0.0 1.0 0.00 0.00 0.00 88 1013.3
20260901043004 68 244 0.0 1.0 0.00 0.00 0.00 87 1013.2
20260901041004 68 288 0.0 0.0 0.00 0.00 0.00 87 1013.1
20260901040004 68 288 0.0 1.0 0.00 0.00 0.00 86 1012.9
20260901035004 68 287 0.0 1.0 0.00 0.00 0.00 86 1012.6
20260901034004 68 333 0.0 0.0 0.00 0.00 0.00 85 1012.5
20260901033004 69 1 0.0 1.0 0.00 0.00 0.00 85 1012.4
20260901032004 69 238 1.0 2.0 0.00 0.00 0.00 84 1012.2
20260901031004 69 353 0.0 1.0 0.00 0.00 0.00 84 1012.1
20260901025004 69 22 0.0 1.0 0.00 0.00 0.00 83 1012.0
20260901024004 70 201 0.0 3.0 0.00 0.00 0.00 82 1011.8
20260901023004 70 55 0.0 5.0 0.00 0.00 0.00 82 1011.8
20260901022003 70 27 1.0 4.0 0.00 0.00 0.00 81 1011.9
20260901021003 71 283 2.0 4.0 0.00 0.00 0.00 79 1011.9
20260901020004 72 91 0.0 3.0 0.00 0.00 0.00 77 1011.9
20260901015005 73 43 0.0 3.0 0.00 0.00 0.00 76 1011.8
20260901014005 74 183 1.0 2.0 0.00 0.00 0.00 75 1011.9
20260901013005 74 36 0.0 6.0 0.00 0.00 0.00 73 1011.8
20260901012005 75 322 0.0 6.0 0.00 0.00 0.00 71 1011.9
20260901005005 78 159 0.0 4.0 0.00 0.00 0.00 66 1011.9
20260901004005 79 39 0.0 5.0 0.00 0.00 0.00 65 1011.9
20260901003005 79 85 0.0 3.0 0.00 0.00 0.00 65 1011.9
20260901001005 81 283 3.0 5.0 0.00 0.00 0.00 62 1011.8
20260901000006 81 329 0.0 3.0 0.00 0.00 0.00 64 1011.8
20260831235005 81 359 4.0 6.0 0.00 0.00 0.00 64 1011.8
20260831234004 82 150 0.0 5.0 0.00 0.00 0.00 63 1011.7
20260831233005 83 359 0.0 7.0 0.00 0.00 0.00 62 1011.7
20260831232004 83 3 0.0 9.0 0.00 0.00 0.00 60 1011.6
20260831231005 84 346 0.0 3.0 0.00 0.00 0.00 60 1011.6
20260831230005 84 21 0.0 4.0 0.00 0.00 0.00 58 1011.6
20260831225005 84 356 0.0 6.0 0.00 0.00 0.00 58 1011.6
20260831224005 84 297 3.0 7.0 0.00 0.00 0.00 57 1011.8
20260831223005 84 266 0.0 5.0 0.00 0.00 0.00 58 1012.0
20260831222004 85 270 3.0 7.0 0.00 0.00 0.00 57 1012.1
20260831221005 85 319 3.0 5.0 0.00 0.00 0.00 58 1012.2
20260831215005 85 295 0.0 6.0 0.00 0.00 0.00 58 1012.4
20260831214005 86 266 4.0 4.0 0.00 0.00 0.00 55 1012.5
20260831213005 86 17 0.0 5.0 0.00 0.00 0.00 56 1012.6
20260831211005 87 28 1.0 5.0 0.00 0.00 0.00 54 1012.7
20260831205004 87 60 2.0 3.0 0.00 0.00 0.00 55 1012.7
20260831204004 88 173 0.0 0.0 0.00 0.00 0.00 53 1012.8
20260831203005 88 188 0.0 0.0 0.00 0.00 0.00 54 1012.9
20260831183004 85 142 0.0 3.0 0.00 0.00 0.00 58 1013.6
20260831182003 84 196 0.0 2.0 0.00 0.00 0.00 59 1013.6
20260831181004 84 166 1.0 4.0 0.00 0.00 0.00 60 1013.6
20260831180004 83 187 0.0 4.0 0.00 0.00 0.00 62 1013.6
20260831175004 83 176 0.0 0.0 0.00 0.00 0.00 61 1013.5
20260831174003 82 193 0.0 2.0 0.00 0.00 0.00 64 1013.5
20260831173004 82 190 0.0 0.0 0.00 0.00 0.00 64 1013.5
20260831170005 80 187 0.0 2.0 0.00 0.00 0.00 67 1013.3
20260831165004 80 247 0.0 3.0 0.00 0.00 0.00 68 1013.4
20260831163004 78 203 0.0 4.0 0.00 0.00 0.00 74 1013.2
20260831162004 76 210 0.0 3.0 0.00 0.00 0.00 74 1013.1
20260831161005 76 193 0.0 1.0 0.00 0.00 0.00 77 1013.1
20260831160005 75 210 0.0 3.0 0.00 0.00 0.00 77 1013.1
20260831154004 74 206 0.0 1.0 0.00 0.00 0.00 80 1013.1
20260831153005 73 293 0.0 0.0 0.00 0.00 0.00 82 1013.0
20260831151009 71 293 0.0 0.0 0.00 0.00 0.00 86 1012.9
20260831150004 70 293 0.0 0.0 0.00 0.00 0.00 88 1012.9
20260831145004 69 293 0.0 0.0 0.00 0.00 0.00 90 1012.8
20260831144004 68 293 0.0 0.0 0.00 0.00 0.00 91 1012.8
20260831141005 65 293 0.0 0.0 0.00 0.00 0.00 91 1012.2
20260831140005 65 293 0.0 0.0 0.00 0.00 0.00 91 1012.1
20260831135005 65 293 0.0 1.0 0.00 0.00 0.00 90 1011.9
20260831134005 65 293 0.0 0.0 0.00 0.00 0.00 90 1011.9
20260831133004 65 293 0.0 0.0 0.00 0.00 0.00 90 1011.8
20260831131005 66 293 0.0 0.0 0.00 0.00 0.00 91 1011.7
20260831130006 66 293 0.0 0.0 0.00 0.00 0.00 91 1011.7
20260831125005 66 293 0.0 0.0 0.00 0.00 0.00 90 1011.6
20260831124005 66 293 0.0 0.0 0.00 0.00 0.00 90 1011.6
20260831123005 66 293 0.0 0.0 0.00 0.00 0.00 89 1011.6
20260831122005 66 293 0.0 0.0 0.00 0.00 0.00 90 1011.6
20260831121006 66 293 0.0 0.0 0.00 0.00 0.00 89 1011.7
20260831120005 67 293 0.0 0.0 0.00 0.00 0.00 88 1011.6
20260831115004 67 293 0.0 0.0 0.00 0.00 0.00 88 1011.6
20260831113004 67 293 0.0 0.0 0.00 0.00 0.00 88 1011.7
20260831111004 68 293 0.0 0.0 0.00 0.00 0.00 86 1011.6
20260831110005 68 293 0.0 0.0 0.00 0.00 0.00 87 1011.7
20260831105005 68 293 0.0 0.0 0.00 0.00 0.00 86 1011.7
20260831104004 68 293 0.0 0.0 0.00 0.00 0.00 86 1011.6
20260831103005 68 293 0.0 0.0 0.00 0.00 0.00 84 1011.7
20260831102004 68 293 0.0 0.0 0.00 0.00 0.00 84 1011.6
20260831100005 68 293 0.0 0.0 0.00 0.00 0.00 83 1011.6
20260831095004 69 293 0.0 0.0 0.00 0.00 0.00 82 1011.6
20260831094004 69 293 0.0 0.0 0.00 0.00 0.00 83 1011.6
20260831093004 69 293 0.0 0.0 0.00 0.00 0.00 82 1011.7
20260831091003 69 293 0.0 0.0 0.00 0.00 0.00 80 1011.6
20260831090004 69 293 0.0 0.0 0.00 0.00 0.00 81 1011.6
20260831084004 69 293 0.0 0.0 0.00 0.00 0.00 85 1011.5
20260831083004 69 293 0.0 0.0 0.00 0.00 0.00 84 1011.6
20260831080004 68 293 0.0 0.0 0.00 0.00 0.00 85 1011.8